Regional Weather Roundup
Issued by NWS

Home | Current Version | Previous Version | Graphics & Text | Print | Product List | Glossary Off
Versions: 1 2 3 4 5 6 7 8 9 10 11 12 13 14 15 16 17 18 19 20 21 22 23 24 25 26 27 28 29 30 31 32 33 34 35 36 37 38 39 40 41 42 43 44 45 46 47 48 49 50

000
ASUS43 KMPX 012110
RWRMN
WEATHER ROUNDUP FOR MINNESOTA
NATIONAL WEATHER SERVICE TWIN CITIES/CHANHASSEN MN
300 PM CST SUN FEB 01 2015


NOTE: "FAIR" INDICATES FEW OR NO CLOUDS BELOW 12,000 FEET WITH NO
SIGNIFICANT WEATHER AND/OR OBSTRUCTIONS TO VISIBILITY. N/A MEANS
CURRENT SKY AND/OR WEATHER CONDITIONS ARE NOT AVAILABLE.

MNZ060>063-068>070-012200-
   Twin Cities Metro

CITY           SKY/WX    TMP DP  RH WIND       PRES   REMARKS
TWIN CITIES    PTSUNNY   16   3  56 N18       30.21S WCI   0
ST PAUL        PTSUNNY   17   3  54 N16G29    30.23S WCI   2
CRYSTAL        PTSUNNY   18   3  52 N15G23    30.21F WCI   4
BLAINE         MOSUNNY   19   3  49 NE15G25   30.21F WCI   5
LAKEVILLE      PTSUNNY   14   3  62 N14G25    30.18S WCI  -1
EDEN PRAIRIE   MOSUNNY   17   2  51 N15G23    30.19S WCI   2
SOUTH ST PAUL  PTSUNNY   18   4  54 N8G17     30.20S WCI   8
LAKE ELMO      FAIR      18   5  57 N15G21    30.21S WCI   3
$$
MNZ001>005-007-008-013>017-022>024-027-028-012200-
   Northwest Minnesota

CITY           SKY/WX    TMP DP  RH WIND       PRES   REMARKS
BEMIDJI        SUNNY      1 -15  49 N8        30.35F WCI -14
HALLOCK        SUNNY     -4 -15  59 CALM      30.46F
ROSEAU         SUNNY     -2 -15  55 W3        30.41F
WARROAD        SUNNY     -2 -15  55 SW6       30.40F WCI -14
THIEF RVR FALL SUNNY     -2 -11  65 NW6       30.42F WCI -14
CROOKSTON      SUNNY     -2 -11  65 N10       30.47F WCI -19
FOSSTON        SUNNY      3 -11  51 N12       30.39F WCI -13
DETROIT LAKES  SUNNY      7  -8  51 N12G18    30.35F WCI  -9
MOORHEAD       FAIR       5 -13  43 N15       30.44S WCI -13
PARK RAPIDS    SUNNY      6 -15  37 N13       30.32S WCI -10
MAHNOMEN       FAIR       2 -11  53 N13       30.38F WCI -15
$$
MNZ006-009>011-018-025>026-012200-
   North Central Minnesota

CITY           SKY/WX    TMP DP  RH WIND       PRES   REMARKS
BAUDETTE       SUNNY     -6 -18  56 NW5       30.38F WCI -17
FLAG ISLAND    SUNNY     -8 -15  71 S9        30.38F WCI -25
INTL FALLS     SUNNY      1 -15  47 N3        30.36F
WASKISH        SUNNY      3 -13  47 NW6       30.38F WCI  -8
BIG FORK       SUNNY      5 -15  39 N6        30.33F WCI  -6
LONGVILLE      SUNNY      5 -15  39 NW9       30.32F WCI  -9
GRAND RAPIDS   SUNNY      5 -13  43 N8        30.29F WCI  -8
CRANE LAKE     SUNNY      0 -17  46 NW5       30.37F WCI -10
ORR            SUNNY      1 -17  42 NW6       30.30F WCI -10
COOK           SUNNY      3 -17  39 N5        30.32F WCI  -6
WALKER         FAIR       3 -13  45 N6        30.33F WCI  -8
$$
MNZ012-019>021-037-012200-
   Northeast Minnesota

CITY           SKY/WX    TMP DP  RH WIND       PRES   REMARKS
DULUTH         MOSUNNY   10 -13  34 N9        30.24F WCI  -3
ELY            SUNNY      1 -17  42 CALM      30.29S
HIBBING        SUNNY      5 -15  39 N9        30.30F WCI  -9
EVELETH        SUNNY      5 -15  39 N6        30.30F WCI  -6
DULUTH HARBOR  MOSUNNY   12  -6  44 NE7       30.33F WCI   2
TWO HARBORS    MOSUNNY   16  -8  35 N6        30.26S WCI   7
SILVER BAY     MOSUNNY   12 -15  29 NE5       30.26F WCI   4
GRAND MARAIS     N/A     10  -5  50 CALM      30.33F
G MARAIS ARPRT SUNNY      1 -17  42 NW6       30.21S WCI -10
$$
MNZ029>031-032-039>041-046>048-054>057-064-012200-
   West Central Minnesota

CITY           SKY/WX    TMP DP  RH WIND       PRES   REMARKS
FERGUS FALLS   SUNNY      7 -11  43 N10G16    30.40F WCI  -8
WHEATON        SUNNY      7  -9  47 NW17G23   30.40F WCI -12
MORRIS         SUNNY     12   0  57 N15G21    30.31F WCI  -4
ALEXANDRIA     SUNNY     11  -4  51 N13       30.28F WCI  -4
ELBOW LAKE     FAIR       9  -5  53 N14       30.33S WCI  -7
WADENA         SUNNY      7 -11  43 N8        30.31S WCI  -6
GLENWOOD       FAIR      12   0  57 N12       30.28S WCI  -2
APPLETON       SUNNY     16   0  48 N20G25    30.32S WCI  -1
BENSON         PTSUNNY   16   0  48 NE15G21   30.30S WCI   1
ORTONVILLE     SUNNY      9  -6  52 N18       30.35S WCI -10
MADISON        SUNNY     14   3  62 NW20G28   30.33S WCI  -3
WILLMAR        FAIR      18   0  45 N15       30.27S WCI   3
$$
MNZ033>034-036-042>043-049>051-058-059-012200-
   Central Minnesota

CITY           SKY/WX    TMP DP  RH WIND       PRES   REMARKS
ST CLOUD       SUNNY     14  -4  44 N13       30.26S WCI   0
SAUK CENTRE    FAIR      12  -3  50 N12       30.28S WCI  -2
PAYNESVILLE    SUNNY     12  -3  52 NW13G21   30.26S WCI  -3
AITKIN         SUNNY     12 -15  29 N10       30.28F WCI  -1
PINE RIVER     SUNNY      3 -11  51 N10       30.34F WCI -12
BRAINERD       SUNNY      8 -14  35 N10       30.29F WCI  -6
STAPLES        SUNNY      9 -15  33 N12       30.30F WCI  -6
LONG PRAIRIE   FAIR      10  -8  44 NW13      30.28S WCI  -5
LITTLE FALLS   SUNNY     12 -13  31 N7        30.29S WCI   2
LITCHFIELD     SUNNY     16   0  48 N14G22    30.24S WCI   1
BUFFALO        MOSUNNY   17   2  50 N14G20    30.24S WCI   3
MAPLE LAKE     MOSUNNY   18   4  53 N13G22    30.24F WCI   5
$$
MNZ037-044-045-052-053-012200-
   East Central Minnesota

CITY           SKY/WX    TMP DP  RH WIND       PRES   REMARKS
PRINCETON      MOSUNNY   16  -2  45 N14       30.25S WCI   1
MORA           SUNNY     14  -6  41 N7        30.27F WCI   4
CAMBRIDGE      MOSUNNY   18   1  49 N12G18    30.23S WCI   5
RUSH CITY      MOSUNNY   16   1  51 N14       30.25S WCI   1
MOOSE LAKE     SUNNY     12 -11  34 NE9       30.26F WCI   0
HINCKLEY       FAIR      16  -2  45 N10       30.26S WCI   3
CLOQUET        SUNNY      9 -15  33 NE9G17    30.26F WCI  -5
MCGREGOR       SUNNY     10 -11  37 N13G18    30.29F WCI  -5
$$
MNZ071>073-080-081-089-090-097-098-012200-
   Southwest Minnesota

CITY           SKY/WX    TMP DP  RH WIND       PRES   REMARKS
MONTEVIDEO     MOSUNNY   16   3  57 NE18      30.30F WCI  -1
GRANITE FALLS  MOSUNNY   16   5  61 N15G22    30.29S WCI   1
CANBY          SUNNY     10   1  67 NW18G26   30.33R WCI  -9
MARSHALL       CLOUDY    10   0  61 N24G31    30.27S WCI -10
REDWOOD FALLS  PTSUNNY   17   3  54 N15G26    30.25S WCI   2
OLIVIA         SUNNY     16   3  57 N17G25    30.25R WCI   0
PIPESTONE      MOSUNNY    9   1  72 N16G24    30.22R WCI  -9
WINDOM         CLOUDY    12   7  79 N21G30    30.18R WCI  -6
WORTHINGTON    CLOUDY    14   3  62 N25G32    30.18R WCI  -5
JACKSON        CLOUDY    14   9  79 N17G26    30.15R HAZE    WCI  -3
TRACY          PTSUNNY   14   6  71 N21G28    30.23S WCI  -4
SLAYTON        CLOUDY    10   5  81 N21       30.20R WCI -10
$$
MNZ065>067-074>077-082>085-091>093-012200-
   South Central Minnesota

CITY           SKY/WX    TMP DP  RH WIND       PRES   REMARKS
MANKATO        PTSUNNY   16   3  57 N20       30.17R WCI  -1
NEW ULM        PTSUNNY   16   3  57 N13G20    30.19S WCI   2
ST JAMES       PTSUNNY   16   7  67 N16       30.20R WCI   0
FAIRMONT       CLOUDY    14   5  67 N21G26    30.14R WCI  -4
GLENCOE        MOSUNNY   17   7  65 N10G21    30.21S WCI   4
FARIBAULT      PTSUNNY   18   5  57 N14G23    30.16R WCI   4
OWATONNA       PTSUNNY   14   1  57 N22G29    30.13R WCI  -4
WASECA         PTSUNNY   18   7  62 N18       30.16R WCI   2
ALBERT LEA     CLOUDY    12   5  73 N18G28    30.10R WCI  -5
$$
MNZ078>079-086>088-094>096-012200-
   Southeast Minnesota

CITY           SKY/WX    TMP DP  RH WIND       PRES   REMARKS
ROCHESTER      MIX PCPN  12   4  70 N23       30.08S WCI  -7
RED WING       CLOUDY    18   0  45 NE12G20   30.17S WCI   5
STANTON        CLOUDY    17   5  58 N18       30.15S WCI   1
DODGE CENTER   CLOUDY    12   3  67 N20G26    30.10R WCI  -6
WINONA         CLOUDY    18   5  57 NE8G16    30.14S WCI   7
AUSTIN         LGT SNOW  12   7  79 N16G29    30.08R WCI  -4
PRESTON        LGT SNOW  12   7  81 N15G24    30.06R WCI  -4
$$
ABBREVIATIONS USED IN REMARKS
   TC - TEMPERATURES IN CELSIUS
  WCI - WIND CHILL INDEX
   HX - HEAT INDEX
  VSB - VISIBILITY
$$


USA.gov is the U.S. government's official web portal to all federal, state and local government web resources and services.